TimeEDT,TemperatureF,Dew PointF,Humidity,Sea Level PressureIn,VisibilityMPH,Wind Direction,Wind SpeedMPH,Gust SpeedMPH,PrecipitationIn,Events,Conditions,WindDirDegrees,DateUTC
12:05 AM,73.6,72.5,96,30.17,10.0,Calm,Calm,-,N/A,,Scattered Clouds,0,2013-08-21 04:05:00
12:25 AM,73.4,72.3,96,30.17,10.0,Calm,Calm,-,N/A,,Scattered Clouds,0,2013-08-21 04:25:00
12:45 AM,73.0,72.5,98,30.17,10.0,Calm,Calm,-,N/A,,Mostly Cloudy,0,2013-08-21 04:45:00
1:05 AM,73.2,72.3,97,30.16,10.0,Calm,Calm,-,N/A,,Scattered Clouds,0,2013-08-21 05:05:00
1:25 AM,72.5,72.1,99,30.17,10.0,Calm,Calm,-,N/A,,Clear,0,2013-08-21 05:25:00
1:45 AM,72.5,72.0,98,30.16,10.0,Calm,Calm,-,N/A,,Clear,0,2013-08-21 05:45:00
2:05 AM,71.2,71.2,100,30.17,5.0,Calm,Calm,-,N/A,,Clear,0,2013-08-21 06:05:00
2:25 AM,71.2,71.2,100,30.17,7.0,Calm,Calm,-,N/A,,Clear,0,2013-08-21 06:25:00
2:45 AM,70.7,70.7,100,30.17,5.0,Calm,Calm,-,N/A,,Clear,0,2013-08-21 06:45:00
3:05 AM,70.7,70.7,100,30.17,4.0,Calm,Calm,-,N/A,,Unknown,0,2013-08-21 07:05:00
3:25 AM,70.5,70.5,100,30.17,7.0,Calm,Calm,-,N/A,,Clear,0,2013-08-21 07:25:00
3:45 AM,69.8,69.8,100,30.16,4.0,Calm,Calm,-,N/A,,Clear,0,2013-08-21 07:45:00
4:05 AM,69.8,69.8,100,30.16,4.0,Calm,Calm,-,N/A,,Clear,0,2013-08-21 08:05:00
4:25 AM,69.8,69.8,100,30.16,5.0,Calm,Calm,-,N/A,,Clear,0,2013-08-21 08:25:00
4:45 AM,69.8,69.8,100,30.16,5.0,Calm,Calm,-,N/A,,Clear,0,2013-08-21 08:45:00
5:05 AM,69.3,69.3,100,30.16,4.0,Calm,Calm,-,N/A,,Clear,0,2013-08-21 09:05:00
5:20 AM,69.3,69.3,100,30.17,5.0,Calm,Calm,-,N/A,,Clear,0,2013-08-21 09:20:00
5:45 AM,68.9,68.9,100,30.17,4.0,Calm,Calm,-,N/A,,Clear,0,2013-08-21 09:45:00
6:05 AM,69.1,69.1,100,30.17,3.0,Calm,Calm,-,N/A,,Clear,0,2013-08-21 10:05:00
6:25 AM,68.9,68.9,100,30.18,3.0,Calm,Calm,-,N/A,,Clear,0,2013-08-21 10:25:00
6:45 AM,69.1,69.1,100,30.18,1.8,Calm,Calm,-,N/A,,Unknown,0,2013-08-21 10:45:00
7:05 AM,69.1,69.1,100,30.19,5.0,Calm,Calm,-,N/A,,Clear,0,2013-08-21 11:05:00
7:25 AM,69.8,69.8,100,30.19,5.0,Calm,Calm,-,N/A,,Clear,0,2013-08-21 11:25:00
7:45 AM,70.9,70.9,100,30.20,5.0,Calm,Calm,-,N/A,,Clear,0,2013-08-21 11:45:00
8:05 AM,72.3,72.3,100,30.20,5.0,Calm,Calm,-,N/A,,Clear,0,2013-08-21 12:05:00
8:25 AM,73.6,73.6,100,30.19,5.0,Calm,Calm,-,N/A,,Clear,0,2013-08-21 12:25:00
8:45 AM,75.0,73.9,96,30.20,7.0,Calm,Calm,-,N/A,,Clear,0,2013-08-21 12:45:00
9:05 AM,77.0,73.9,90,30.20,7.0,Calm,Calm,-,N/A,,Clear,0,2013-08-21 13:05:00
9:25 AM,79.2,74.7,86,30.19,10.0,South,3.5,-,N/A,,Clear,180,2013-08-21 13:25:00
9:45 AM,80.2,75.0,84,30.20,10.0,Calm,Calm,-,N/A,,Clear,0,2013-08-21 13:45:00
10:05 AM,81.1,74.3,80,30.20,10.0,Calm,Calm,-,N/A,,Clear,0,2013-08-21 14:05:00
10:25 AM,82.9,74.1,75,30.20,10.0,SW,3.5,-,N/A,,Clear,220,2013-08-21 14:25:00
10:45 AM,83.8,73.4,71,30.20,10.0,South,4.6,-,N/A,,Scattered Clouds,190,2013-08-21 14:45:00
11:05 AM,84.6,72.7,67,30.20,10.0,SW,4.6,-,N/A,,Scattered Clouds,220,2013-08-21 15:05:00
11:25 AM,86.0,72.7,64,30.19,10.0,SSE,5.8,-,N/A,,Scattered Clouds,160,2013-08-21 15:25:00
11:45 AM,85.3,72.1,65,30.19,10.0,SW,4.6,-,N/A,,Scattered Clouds,220,2013-08-21 15:45:00
12:05 PM,86.0,71.8,62,30.19,10.0,SSE,8.1,-,N/A,,Scattered Clouds,160,2013-08-21 16:05:00
12:25 PM,86.2,71.2,61,30.19,10.0,South,5.8,-,N/A,,Clear,180,2013-08-21 16:25:00
12:45 PM,86.5,70.9,59,30.18,10.0,South,4.6,-,N/A,,Clear,170,2013-08-21 16:45:00
1:05 PM,86.9,70.7,58,30.18,10.0,South,4.6,-,N/A,,Clear,180,2013-08-21 17:05:00
1:25 PM,87.8,70.0,55,30.17,10.0,South,6.9,-,N/A,,Clear,180,2013-08-21 17:25:00
1:45 PM,88.9,70.0,53,30.16,10.0,SSE,6.9,-,N/A,,Scattered Clouds,160,2013-08-21 17:45:00
2:05 PM,88.3,70.9,56,30.15,10.0,SSE,3.5,-,N/A,,Scattered Clouds,150,2013-08-21 18:05:00
2:25 PM,90.3,70.9,53,30.15,10.0,WSW,5.8,-,N/A,,Scattered Clouds,250,2013-08-21 18:25:00
2:45 PM,90.3,70.7,52,30.13,10.0,SSE,6.9,-,N/A,,Mostly Cloudy,160,2013-08-21 18:45:00
3:05 PM,90.0,70.7,53,30.12,10.0,SSE,4.6,-,N/A,,Mostly Cloudy,160,2013-08-21 19:05:00
3:25 PM,89.6,70.3,53,30.12,10.0,South,6.9,-,N/A,,Scattered Clouds,180,2013-08-21 19:25:00
3:45 PM,90.1,70.2,52,30.11,10.0,Calm,Calm,-,N/A,,Scattered Clouds,0,2013-08-21 19:45:00
4:05 PM,90.0,69.6,51,30.11,10.0,South,4.6,-,N/A,,Mostly Cloudy,170,2013-08-21 20:05:00
4:25 PM,89.2,70.5,54,30.10,10.0,SSE,5.8,-,N/A,,Mostly Cloudy,160,2013-08-21 20:25:00
4:45 PM,90.1,70.5,52,30.10,10.0,SSE,5.8,-,N/A,,Mostly Cloudy,150,2013-08-21 20:45:00
5:05 PM,90.3,69.8,51,30.09,10.0,SSE,5.8,-,N/A,,Mostly Cloudy,160,2013-08-21 21:05:00
5:25 PM,88.7,70.2,54,30.09,10.0,South,4.6,-,N/A,,Scattered Clouds,180,2013-08-21 21:25:00
5:45 PM,88.7,70.5,55,30.09,10.0,South,5.8,-,N/A,,Scattered Clouds,170,2013-08-21 21:45:00
6:05 PM,87.6,70.9,57,30.09,10.0,SSW,4.6,-,N/A,,Clear,200,2013-08-21 22:05:00
6:25 PM,87.6,70.0,56,30.09,10.0,South,4.6,-,N/A,,Clear,190,2013-08-21 22:25:00
6:45 PM,86.9,70.7,58,30.09,10.0,Calm,Calm,-,N/A,,Clear,0,2013-08-21 22:45:00
7:05 PM,86.4,71.6,61,30.09,10.0,South,3.5,-,N/A,,Clear,190,2013-08-21 23:05:00
7:25 PM,86.0,72.0,63,30.09,10.0,South,4.6,-,N/A,,Clear,170,2013-08-21 23:25:00
7:45 PM,85.3,71.8,64,30.08,10.0,South,4.6,-,N/A,,Clear,180,2013-08-21 23:45:00
8:05 PM,85.1,72.1,65,30.08,10.0,Calm,Calm,-,N/A,,Clear,0,2013-08-22 00:05:00
8:25 PM,84.4,72.7,68,30.09,10.0,Calm,Calm,-,N/A,,Clear,0,2013-08-22 00:25:00
8:45 PM,83.1,73.0,71,30.09,10.0,Calm,Calm,-,N/A,,Scattered Clouds,0,2013-08-22 00:45:00
9:05 PM,83.8,73.2,70,30.09,10.0,South,5.8,-,N/A,,Scattered Clouds,190,2013-08-22 01:05:00
9:25 PM,82.8,74.3,75,30.09,10.0,South,4.6,-,N/A,,Clear,180,2013-08-22 01:25:00
9:45 PM,80.8,74.1,80,30.09,10.0,South,3.5,-,N/A,,Scattered Clouds,180,2013-08-22 01:45:00
10:05 PM,79.9,74.8,85,30.10,10.0,Calm,Calm,-,N/A,,Scattered Clouds,0,2013-08-22 02:05:00
10:25 PM,79.3,75.2,87,30.10,10.0,Calm,Calm,-,N/A,,Scattered Clouds,0,2013-08-22 02:25:00
10:45 PM,78.8,76.1,91,30.10,10.0,Calm,Calm,-,N/A,,Scattered Clouds,0,2013-08-22 02:45:00
11:05 PM,77.2,76.5,98,30.09,10.0,Calm,Calm,-,N/A,,Scattered Clouds,0,2013-08-22 03:05:00
11:25 PM,76.8,76.3,98,30.08,10.0,Calm,Calm,-,N/A,,Scattered Clouds,0,2013-08-22 03:25:00
11:45 PM,77.9,75.2,91,30.10,10.0,Calm,Calm,-,N/A,,Mostly Cloudy,0,2013-08-22 03:45:00